Latest Weather Observations for Wilsons Promontory

IDV60801

Issued at 5:31 pm EST Saturday 5 September 2015 (issued every 30 minutes, with the page automatically refreshed every 10 minutes)

About weather observations | Map of weather stations | Latest weather observations for VIC | Other Formats
Station Details ID: 085096 Name: WILSONS PROMONTORY LIGHTHOUSE Lat: -39.13 Lon: 146.42 Height: 95.0 m
Data from the previous 72 hours. | See also: Recent months at Wilsons Promontory
Date/Time
EST
Temp
°C
App
Temp
°C
Dew
Point
Rel
Hum
%
Delta-T
°C
Wind Press
QNH
hPa
Press
MSL
hPa
Rain
since 9 am
mm
Dir
 
Spd
km/h
Gust
km/h
Spd
kts
Gust
kts
05/05:30pm 10.6 - - - - - - - - - 1022.4 - 0.0
05/05:00pm 10.8 - - - - - - - - - 1022.3 - 0.0
05/04:30pm 11.0 - - - - - - - - - 1022.0 - 0.0
05/04:00pm 11.5 - - - - - - - - - 1021.9 - 0.0
05/03:30pm 11.4 - - - - - - - - - 1021.9 - 0.0
05/03:00pm 10.8 - - - - - - - - - 1021.5 1021.6 0.0
05/02:30pm 11.9 - - - - - - - - - 1021.8 - 0.0
05/02:00pm 12.0 - - - - - - - - - 1021.8 - 0.0
05/01:30pm 12.4 - - - - - - - - - 1021.9 - 0.0
05/01:00pm 11.9 - - - - - - - - - 1022.2 - 0.0
05/12:30pm 11.8 - - - - - - - - - 1022.4 - 0.0
05/12:00pm 11.2 - - - - - - - - - 1022.3 1022.4 0.0
05/11:30am 12.5 - - - - - - - - - 1022.5 - 0.0
05/11:00am 12.4 - - - - - - - - - 1022.6 - 0.0
05/10:30am 12.1 - - - - - - - - - 1022.8 - 0.0
05/10:00am 12.0 - - - - - - - - - 1023.0 - 0.0
05/09:30am 11.0 - - - - - - - - - 1022.6 - 0.0
05/09:00am 11.1 - - - - - - - - - 1022.6 1022.7 0.2
05/08:30am 10.7 - - - - - - - - - 1022.5 - 0.2
05/08:00am 10.7 - - - - - - - - - 1022.3 - 0.2
05/07:30am 10.2 - - - - - - - - - 1022.4 - 0.2
05/07:00am 10.3 - - - - - - - - - 1021.8 - 0.2
05/06:30am 9.9 - - - - - - - - - 1021.6 - 0.2
05/06:00am 9.9 - - - - - - - - - 1021.3 1021.4 0.2
05/05:30am 9.3 - - - - - - - - - 1021.2 - 0.2
05/05:00am 10.1 - - - - - - - - - 1021.1 - 0.2
05/04:30am 10.4 - - - - - - - - - 1020.5 - 0.2
05/04:00am 10.5 - - - - - - - - - 1020.3 - 0.2
05/03:30am 10.4 - - - - - - - - - 1020.4 - 0.2
05/03:00am 10.3 - - - - - - - - - 1020.6 1020.7 0.2
05/02:30am 10.1 - - - - - - - - - 1020.9 - 0.2
05/02:00am 9.9 - - - - - - - - - 1020.7 - 0.2
05/01:30am 10.1 - - - - - - - - - 1021.2 - 0.2
05/01:00am 9.8 - - - - - - - - - 1021.3 - 0.2
05/12:30am 10.3 - - - - - - - - - 1021.6 - 0.2
05/12:00am 10.2 - - - - - - - - - 1021.5 1021.6 0.2
 
Date/Time
EST
Temp
°C
App
Temp
°C
Dew
Point
Rel
Hum
%
Delta-T
°C
Wind Press
QNH
hPa
Press
MSL
hPa
Rain
since 9 am
mm
Dir
 
Spd
km/h
Gust
km/h
Spd
kts
Gust
kts
04/11:30pm 10.0 - - - - - - - - - 1021.6 - 0.0
04/11:00pm 10.8 - - - - - - - - - 1021.5 - 0.0
04/10:30pm 10.7 - - - - - - - - - 1021.7 - 0.0
04/10:00pm 11.0 - - - - - - - - - 1021.7 - 0.0
04/09:30pm 10.9 - - - - - - - - - 1021.7 - 0.0
04/09:00pm 10.8 - - - - - - - - - 1021.8 1021.9 0.0
04/08:30pm 10.9 - - - - - - - - - 1021.7 - 0.0
04/08:00pm 10.6 - - - - - - - - - 1021.7 - 0.0
04/07:30pm 10.5 - - - - - - - - - 1021.7 - 0.0
04/07:00pm 10.0 - - - - - - - - - 1021.6 - 0.0
04/06:30pm 10.1 - - - - - - - - - 1021.5 - 0.0
04/06:00pm 10.1 - - - - - - - - - 1021.2 1021.3 0.0
04/05:30pm 10.5 - - - - - - - - - 1021.1 - 0.0
04/05:00pm 10.7 - - - - - - - - - 1020.9 - 0.0
04/04:30pm 10.7 - - - - - - - - - 1020.9 - 0.0
04/04:00pm 10.9 - - - - - - - - - 1020.9 - 0.0
04/03:30pm 11.0 - - - - - - - - - 1021.0 - 0.0
04/03:00pm 11.2 - - - - - - - - - 1020.9 1021.0 0.0
04/02:30pm 11.0 - - - - - - - - - 1020.9 - 0.0
04/02:00pm 11.2 - - - - - - - - - 1021.1 - 0.0
04/01:30pm 11.5 - - - - - - - - - 1021.6 - 0.0
04/01:00pm 11.4 - - - - - - - - - 1021.6 - 0.0
04/12:30pm 11.3 - - - - - - - - - 1022.2 - 0.0
04/12:00pm 11.6 - - - - - - - - - 1022.5 1022.6 0.0
04/11:30am 10.9 - - - - - - - - - 1022.6 - 0.0
04/11:00am 10.6 - - - - - - - - - 1022.5 - 0.0
04/10:30am 10.4 - - - - - - - - - 1022.9 - 0.0
04/10:00am 9.9 - - - - - - - - - 1023.0 - 0.0
04/09:30am 9.8 - - - - - - - - - 1022.7 - 0.0
04/09:00am 9.8 - - - - - - - - - 1022.7 1022.8 0.0
04/08:30am 9.4 - - - - - - - - - 1022.4 - 0.0
04/08:00am 9.2 - - - - - - - - - 1022.0 - 0.0
04/07:30am 9.1 - - - - - - - - - 1021.9 - 0.0
04/07:00am 9.1 - - - - - - - - - 1021.5 - 0.0
04/06:30am 9.1 - - - - - - - - - 1021.5 - 0.0
04/06:00am 9.0 - - - - - - - - - 1021.5 1021.6 0.0
04/05:30am 9.2 - - - - - - - - - 1021.4 - 0.0
04/05:00am 9.0 - - - - - - - - - 1021.5 - 0.0
04/04:30am 9.1 - - - - - - - - - 1021.2 - 0.0
04/04:00am 9.1 - - - - - - - - - 1020.9 - 0.0
04/03:30am 9.3 - - - - - - - - - 1020.8 - 0.0
04/03:00am 9.4 - - - - - - - - - 1020.6 1020.7 0.0
04/02:30am 9.5 - - - - - - - - - 1020.5 - 0.0
04/02:00am 9.7 - - - - - - - - - 1020.9 - 0.0
04/01:30am 9.8 - - - - - - - - - 1021.0 - 0.0
04/01:00am 10.0 - - - - - - - - - 1020.8 - 0.0
04/12:30am 10.2 - - - - - - - - - 1020.7 - 0.0
04/12:00am 10.4 - - - - - - - - - 1020.6 1020.7 0.0
 
Date/Time
EST
Temp
°C
App
Temp
°C
Dew
Point
Rel
Hum
%
Delta-T
°C
Wind Press
QNH
hPa
Press
MSL
hPa
Rain
since 9 am
mm
Dir
 
Spd
km/h
Gust
km/h
Spd
kts
Gust
kts
03/11:30pm 10.4 - - - - - - - - - 1020.5 - 0.0
03/11:00pm 10.5 - - - - - - - - - 1020.4 - 0.0
03/10:30pm 10.5 - - - - - - - - - 1020.2 - 0.0
03/10:00pm 10.7 - - - - - - - - - 1020.0 - 0.0
03/09:30pm 10.9 - - - - - - - - - 1019.7 - 0.0
03/09:00pm 10.9 - - - - - - - - - 1019.6 1019.7 0.0
03/08:30pm 10.6 - - - - - - - - - 1019.3 - 0.0
03/08:00pm 11.1 - - - - - - - - - 1019.1 - 0.0
03/07:30pm 11.3 - - - - - - - - - 1019.0 - 0.0
03/07:00pm 11.4 - - - - - - - - - 1018.5 - 0.0
03/06:30pm 11.5 - - - - - - - - - 1018.0 - 0.0
03/06:00pm 11.5 - - - - - - - - - 1017.6 1017.7 0.0
03/05:30pm 11.3 - - - - - - - - - 1016.9 - 0.0
03/05:00pm 11.5 - - - - - - - - - 1016.1 - 0.0
03/04:30pm 11.7 - - - - - - - - - 1015.7 - 0.0
03/04:00pm 11.8 - - - - - - - - - 1015.2 - 0.0
03/03:30pm 11.7 - - - - - - - - - 1015.0 - 0.0
03/03:00pm 11.6 - - - - - - - - - 1014.6 1014.7 0.0
03/02:30pm 12.0 - - - - - - - - - 1014.2 - 0.0
03/02:00pm 11.9 - - - - - - - - - 1013.6 - 0.0
03/01:30pm 11.6 - - - - - - - - - 1013.5 - 0.0
03/01:00pm 11.4 - - - - - - - - - 1013.3 - 0.0
03/12:30pm 11.8 - - - - - - - - - 1013.4 - 0.0
03/12:00pm 11.8 - - - - - - - - - 1013.2 1013.3 0.0
03/11:30am 12.1 - - - - - - - - - 1012.8 - 0.0
03/11:00am 12.4 - - - - - - - - - 1012.4 - 0.0
03/10:30am 12.2 - - - - - - - - - 1012.0 - 0.0
03/10:00am 11.6 - - - - - - - - - 1011.7 - 0.0
03/09:30am 11.8 - - - - - - - - - 1011.4 - 0.0
03/09:00am 11.8 - - - - - - - - - 1011.0 1011.1 0.0
03/08:30am 11.5 - - - - - - - - - 1010.7 - 0.0
03/08:00am 11.4 - - - - - - - - - 1010.3 - 0.0
03/07:30am 11.2 - - - - - - - - - 1009.9 - 0.0
03/07:00am 11.1 - - - - - - - - - 1009.5 - 0.0
03/06:30am 11.0 - - - - - - - - - 1009.1 - 0.0
03/06:00am 11.0 - - - - - - - - - 1008.9 1009.0 0.0
03/05:30am 11.1 - - - - - - - - - 1008.4 - 0.0
03/05:00am 11.1 - - - - - - - - - 1008.0 - 0.0
03/04:30am 11.0 - - - - - - - - - 1007.8 - 0.0
03/04:00am 11.1 - - - - - - - - - 1007.5 - 0.0
03/03:30am 11.0 - - - - - - - - - 1007.5 - 0.0
03/03:00am 10.9 - - - - - - - - - 1007.7 1007.8 0.0
03/02:30am 10.8 - - - - - - - - - 1008.0 - 0.0
03/02:00am 10.8 - - - - - - - - - 1007.9 - 0.0
03/01:30am 10.8 - - - - - - - - - 1008.1 - 0.0
03/01:00am 10.8 - - - - - - - - - 1008.0 - 0.0
03/12:30am 11.1 - - - - - - - - - 1007.9 - 0.0
03/12:00am 11.3 - - - - - - - - - 1007.7 1007.8 0.0
 
Date/Time
EST
Temp
°C
App
Temp
°C
Dew
Point
Rel
Hum
%
Delta-T
°C
Wind Press
QNH
hPa
Press
MSL
hPa
Rain
since 9 am
mm
Dir
 
Spd
km/h
Gust
km/h
Spd
kts
Gust
kts
02/11:30pm 11.2 - - - - - - - - - 1007.9 - 0.0
02/11:00pm 11.6 - - - - - - - - - 1008.3 - 0.0
02/10:30pm 11.7 - - - - - - - - - 1008.4 - 0.0
02/10:00pm 11.7 - - - - - - - - - 1008.5 - 0.0
02/09:30pm 11.7 - - - - - - - - - 1008.6 - 0.0
02/09:00pm 11.7 - - - - - - - - - 1008.6 1008.7 0.0
02/08:30pm 11.7 - - - - - - - - - 1008.7 - 0.0
02/08:00pm 11.5 - - - - - - - - - 1008.6 - 0.0
02/07:30pm 11.3 - - - - - - - - - 1008.7 - 0.0
02/07:00pm 11.3 - - - - - - - - - 1008.6 - 0.0
02/06:30pm 11.3 - - - - - - - - - 1008.6 - 0.0
02/06:00pm 11.3 - - - - - - - - - 1008.5 1008.6 0.0

Other Formats:

Comma delimited format used in spreadsheet applications
http://www.bom.gov.au/fwo/IDV60801/IDV60801.94893.axf

JavaScript Object Notation format (JSON) in row-major order
http://www.bom.gov.au/fwo/IDV60801/IDV60801.94893.json